Total_Precipitation_Accumulation
0.01 0.04 0.10 0.06 0.05 0.04 0.04 0.06 0.06 0.07 0.10 0.16 0.16 0.15 0.16 0.17 0.19 0.16 0.18 0.20 0.23 0.26 0.25 0.27 0.28 0.31 0.33 0.31 0.20 0.08 0.02 0.01 0.01 0.01 0.01 0.01 0.02 0.03 0.04 0.05 0.05 0.05 0.06
0.01 0.03 0.08 0.06 0.06 0.05 0.06 0.06 0.05 0.06 0.11 0.16 0.15 0.17 0.19 0.19 0.19 0.18 0.18 0.20 0.19 0.19 0.20 0.20 0.17 0.13 0.09 0.07 0.04 0.02 0.01 0.00 0.00 0.00 0.00 0.00 0.01 0.02 0.02 0.03 0.04 0.07 0.08
0.01 0.03 0.07 0.07 0.06 0.06 0.06 0.05 0.05 0.06 0.10 0.13 0.14 0.16 0.17 0.16 0.16 0.17 0.19 0.16 0.13 0.13 0.14 0.12 0.07 0.04 0.02 0.01 0.01 0.00 0.00 0.00 0.00 0.00 0.01 0.01 0.01 0.03 0.03 0.03 0.05 0.07 0.08
0.01 0.03 0.05 0.07 0.06 0.06 0.05 0.04 0.05 0.07 0.11 0.12 0.14 0.15 0.16 0.15 0.15 0.16 0.14 0.10 0.07 0.07 0.05 0.03 0.02 0.01 0.00 0.00 0.00 0.00 0.00 0.00 0.00 0.00 0.01 0.01 0.02 0.05 0.05 0.05 0.06 0.06 0.08
0.03 0.04 0.07 0.08 0.07 0.05 0.04 0.04 0.06 0.07 0.10 0.12 0.15 0.16 0.16 0.15 0.15 0.13 0.09 0.05 0.03 0.02 0.01 0.01 0.00 0.00 0.00 0.00 0.00 0.00 0.01 0.01 0.00 0.00 0.00 0.01 0.02 0.06 0.06 0.06 0.08 0.09 0.10
0.06 0.07 0.10 0.10 0.08 0.06 0.05 0.05 0.06 0.08 0.10 0.13 0.17 0.17 0.17 0.16 0.14 0.10 0.06 0.02 0.01 0.00 0.00 0.00 0.00 0.00 0.00 0.00 0.00 0.00 0.00 0.01 0.00 0.00 0.00 0.01 0.02 0.06 0.07 0.08 0.11 0.13 0.15
0.12 0.14 0.15 0.13 0.10 0.07 0.06 0.06 0.06 0.09 0.10 0.13 0.18 0.16 0.17 0.13 0.11 0.10 0.05 0.01 0.00 0.00 0.00 0.00 0.01 0.00 0.00 0.00 0.00 0.00 0.00 0.00 0.00 0.00 0.01 0.01 0.03 0.07 0.08 0.09 0.11 0.13 0.16
0.20 0.24 0.23 0.20 0.13 0.09 0.06 0.06 0.06 0.09 0.10 0.15 0.19 0.17 0.15 0.10 0.07 0.07 0.05 0.01 0.00 0.00 0.00 0.01 0.01 0.01 0.01 0.00 0.00 0.00 0.00 0.00 0.00 0.00 0.00 0.01 0.02 0.06 0.08 0.08 0.09 0.10 0.12
0.39 0.38 0.33 0.24 0.16 0.12 0.08 0.06 0.06 0.08 0.10 0.16 0.19 0.16 0.12 0.07 0.06 0.05 0.03 0.01 0.01 0.01 0.01 0.01 0.01 0.01 0.01 0.01 0.01 0.00 0.00 0.00 0.00 0.00 0.00 0.01 0.03 0.07 0.08 0.09 0.11 0.11 0.11
0.62 0.55 0.44 0.30 0.19 0.14 0.11 0.08 0.06 0.07 0.09 0.14 0.14 0.11 0.08 0.06 0.04 0.02 0.01 0.01 0.01 0.01 0.01 0.01 0.01 0.01 0.01 0.01 0.01 0.00 0.00 0.00 0.00 0.00 0.00 0.01 0.04 0.09 0.12 0.13 0.13 0.12 0.10
0.82 0.72 0.59 0.40 0.25 0.17 0.13 0.09 0.06 0.06 0.09 0.10 0.09 0.07 0.05 0.04 0.03 0.01 0.01 0.00 0.01 0.01 0.02 0.01 0.01 0.02 0.01 0.00 0.00 0.00 0.00 0.00 0.00 0.00 0.01 0.02 0.07 0.12 0.12 0.09 0.07 0.07 0.07
0.87 0.77 0.71 0.52 0.36 0.26 0.18 0.11 0.08 0.07 0.08 0.08 0.06 0.05 0.04 0.03 0.02 0.01 0.00 0.00 0.01 0.01 0.01 0.01 0.01 0.01 0.00 0.00 0.00 0.00 0.00 0.00 0.00 0.00 0.01 0.04 0.07 0.09 0.06 0.04 0.05 0.06 0.06
0.96 0.91 0.79 0.69 0.49 0.36 0.25 0.14 0.08 0.06 0.07 0.09 0.05 0.04 0.04 0.02 0.01 0.01 0.01 0.01 0.01 0.00 0.00 0.00 0.00 0.00 0.00 0.00 0.00 0.00 0.00 0.00 0.00 0.00 0.01 0.02 0.03 0.04 0.04 0.03 0.03 0.03 0.03
1.03 0.97 0.89 0.79 0.61 0.46 0.31 0.17 0.10 0.06 0.06 0.08 0.06 0.03 0.03 0.02 0.01 0.01 0.00 0.00 0.00 0.00 0.00 0.00 0.00 0.00 0.00 0.00 0.00 0.00 0.00 0.00 0.00 0.00 0.00 0.00 0.00 0.01 0.02 0.02 0.02 0.02 0.02
0.94 0.98 0.97 0.91 0.75 0.57 0.43 0.25 0.14 0.08 0.06 0.07 0.07 0.04 0.02 0.02 0.01 0.00 0.00 0.00 0.00 0.00 0.00 0.00 0.00 0.00 0.00 0.00 0.00 0.00 0.00 0.00 0.00 0.00 0.00 0.00 0.00 0.00 0.01 0.01 0.02 0.03 0.04
0.85 0.91 0.96 0.96 0.90 0.75 0.52 0.35 0.22 0.14 0.09 0.07 0.08 0.04 0.02 0.01 0.01 0.01 0.00 0.00 0.00 0.00 0.00 0.00 0.00 0.00 0.00 0.00 0.00 0.00 0.00 0.00 0.00 0.00 0.00 0.00 0.00 0.00 0.01 0.01 0.02 0.04 0.06
0.86 0.96 0.94 0.97 0.99 0.91 0.73 0.54 0.35 0.25 0.14 0.08 0.09 0.07 0.03 0.01 0.01 0.01 0.00 0.00 0.00 0.00 0.00 0.00 0.00 0.00 0.00 0.00 0.00 0.00 0.00 0.00 0.00 0.00 0.00 0.00 0.00 0.00 0.00 0.01 0.02 0.05 0.08
0.99 1.00 1.01 0.97 1.01 0.96 0.89 0.79 0.58 0.39 0.25 0.16 0.12 0.08 0.05 0.03 0.01 0.01 0.01 0.00 0.00 0.00 0.00 0.01 0.01 0.01 0.01 0.01 0.01 0.01 0.00 0.00 0.00 0.00 0.00 0.00 0.00 0.00 0.00 0.00 0.02 0.04 0.07
1.04 1.04 1.10 1.05 1.04 1.06 1.02 0.98 0.84 0.64 0.44 0.32 0.22 0.14 0.10 0.07 0.05 0.03 0.02 0.02 0.02 0.01 0.01 0.01 0.01 0.01 0.02 0.02 0.02 0.01 0.01 0.00 0.00 0.00 0.00 0.00 0.00 0.00 0.00 0.00 0.01 0.02 0.04
1.05 1.10 1.14 1.14 1.13 1.26 1.30 1.22 1.08 0.84 0.61 0.49 0.36 0.26 0.21 0.16 0.13 0.09 0.05 0.04 0.04 0.03 0.03 0.03 0.04 0.03 0.03 0.04 0.03 0.02 0.01 0.00 0.00 0.00 0.00 0.01 0.01 0.01 0.01 0.01 0.01 0.01 0.02
1.01 1.10 1.12 1.12 1.16 1.29 1.28 1.17 1.04 0.86 0.71 0.60 0.52 0.46 0.38 0.32 0.28 0.21 0.14 0.13 0.11 0.09 0.09 0.10 0.10 0.08 0.06 0.07 0.06 0.03 0.01 0.01 0.00 0.00 0.01 0.01 0.01 0.01 0.02 0.02 0.02 0.02 0.02
0.81 0.98 1.08 1.10 1.15 1.15 1.15 1.19 1.20 1.23 1.06 0.86 0.76 0.63 0.50 0.46 0.41 0.32 0.26 0.24 0.21 0.19 0.17 0.16 0.15 0.15 0.13 0.14 0.13 0.11 0.04 0.01 0.00 0.01 0.01 0.01 0.01 0.01 0.01 0.02 0.02 0.03 0.03
0.61 0.80 1.01 1.12 1.19 1.20 1.25 1.40 1.42 1.42 1.22 0.97 0.72 0.62 0.60 0.59 0.60 0.50 0.45 0.43 0.38 0.33 0.26 0.23 0.24 0.25 0.22 0.19 0.19 0.19 0.12 0.04 0.02 0.01 0.01 0.01 0.01 0.01 0.02 0.03 0.03 0.04 0.03
0.41 0.56 0.75 0.94 1.10 1.20 1.27 1.31 1.26 1.21 1.08 0.90 0.85 0.81 0.83 0.80 0.77 0.73 0.68 0.64 0.57 0.49 0.40 0.36 0.32 0.30 0.28 0.22 0.19 0.17 0.17 0.13 0.12 0.07 0.02 0.02 0.02 0.02 0.03 0.04 0.04 0.04 0.04
0.28 0.41 0.56 0.72 0.91 1.07 1.19 1.27 1.33 1.23 1.14 1.13 1.07 0.98 0.88 0.82 0.79 0.78 0.76 0.75 0.68 0.60 0.56 0.54 0.49 0.44 0.37 0.31 0.26 0.22 0.22 0.17 0.13 0.14 0.09 0.05 0.05 0.05 0.05 0.05 0.04 0.04 0.05
0.14 0.24 0.37 0.49 0.65 0.80 1.00 1.16 1.23 1.15 1.12 1.07 1.04 1.01 0.96 0.89 0.82 0.76 0.73 0.71 0.68 0.65 0.64 0.61 0.59 0.54 0.49 0.43 0.38 0.32 0.31 0.27 0.20 0.19 0.19 0.12 0.11 0.09 0.07 0.06 0.06 0.07 0.08